Regional Weather Roundup
Issued by NWS

Home | Current Version | Previous Version | Text Only | Print | Product List | Glossary Off
Versions: 1 2 3 4 5 6 7 8 9 10 11 12 13 14 15 16 17 18 19 20 21 22 23 24 25 26 27 28 29 30 31 32 33 34 35 36 37 38 39 40 41 42 43 44 45 46 47 48 49 50

973
ASUS43 KMKX 012121
RWRWI

WISCONSIN REGIONAL WEATHER ROUNDUP
NATIONAL WEATHER SERVICE MILWAUKEE/SULLIVAN WI
400 PM CDT SUN MAY 01 2016

NOTE: "FAIR" INDICATES FEW OR NO CLOUDS BELOW 12,000 FEET WITH NO
SIGNIFICANT WEATHER AND/OR OBSTRUCTIONS TO VISIBILITY.

WIZ001-002-006>008-014>016-023>028-012200-
NORTHWEST WISCONSIN

CITY           SKY/WX    TMP DP  RH WIND       PRES   REMARKS
SUPERIOR ARPT  SUNNY     47  36  65 E12       30.20F
ASHLAND        SUNNY     51  38  60 N15       30.19F
HAYWARD        SUNNY     58  34  40 NE16G24   30.12F
SIREN          SUNNY     62  26  25 E12G18    30.11F
CUMBERLAND     SUNNY     59  32  36 N7        30.10S
RICE LAKE      PTSUNNY   61  32  33 N7        30.09F
CHETEK         PTSUNNY   61  33  35 NE6       30.08S
LADYSMITH      PTSUNNY   64  31  29 NE10      30.08F
EAU CLAIRE     MOSUNNY   64  30  27 E10G20    30.06S
MENOMONIE      PTSUNNY   65  33  29 NE3       30.07F
NEW RICHMOND   MOSUNNY   62  32  32 NE8       30.10S
OSCEOLA        MOSUNNY   62  34  35 NE16      30.13S
$$

WIZ003>005-009-010-017-018-012200-
NORTH CENTRAL WISCONSIN

CITY           SKY/WX    TMP DP  RH WIND       PRES   REMARKS
MANITOWISH WTR MOSUNNY   58  32  38 NE9       30.10S
ARBOR VITAE    PTSUNNY   59  30  32 N5        30.09S
WOODRUFF       PTSUNNY   59  30  32 N5        30.09S
RHINELANDER    CLOUDY    59  26  28 NE8       30.08S
EAGLE RIVER    MOSUNNY   59  26  28 NE9G18    30.08F
LAND O LAKES   CLOUDY    58  30  34 NE10      30.10S
PHILLIPS       PTSUNNY   59  31  35 NE12G20   30.08S
TOMAHAWK       CLOUDY    60  28  29 E8        30.07S
MEDFORD        CLOUDY    60  31  33 E10       30.05S
MERRILL        CLOUDY    61  30  31 E9        30.06S
$$

WIZ029-030-035-036-043>047-012200-
CENTRAL WISCONSIN

CITY           SKY/WX    TMP DP  RH WIND       PRES   REMARKS
WAUSAU         CLOUDY    63  31  30 E14G20    30.03F
MOSINEE        PTSUNNY   57  30  35 E9        30.06F
MARSHFIELD     CLOUDY    59  31  34 E10       30.05F
STEVENS POINT  MOSUNNY   58  33  39 E18       30.06S
WAUPACA        SUNNY     61  35  37 NE13G21   30.06F
WAUTOMA        MOSUNNY   59  33  37 NE14G25   30.05F
WISC RAPIDS    MOSUNNY   60  28  29 E16       30.06F
CAMP DOUGLAS   CLOUDY    59  41  50 NE14      30.04F
$$

WIZ011>013-019>022-031-037>040-048>050-012200-
NORTHEAST WISCONSIN

CITY           SKY/WX    TMP DP  RH WIND       PRES   REMARKS
ANTIGO         CLOUDY    57  31  37 E13       30.07S
SHAWANO        SUNNY     61  36  39 E13       30.09S
OCONTO         SUNNY     56  36  47 E10       30.10S
STURGEON BAY   SUNNY     54  37  54 E14G20    30.12S
GREEN BAY      SUNNY     57  40  52 NE21      30.08F
MANITOWOC      MOSUNNY   52  39  61 MISG      30.07S
APPLETON       PTSUNNY   55  34  44 NE20G28   30.05F
CLINTONVILLE   SUNNY     57  34  41 E13G18    30.08S
OSHKOSH        SUNNY     57  40  52 NE17G25   30.04F
$$

WIZ032>034-041-042-053>061-012200-
SOUTHWEST WISCONSIN

CITY           SKY/WX    TMP DP  RH WIND       PRES   REMARKS
LA CROSSE      CLOUDY    56  39  53 SE5       30.05F
SPARTA         CLOUDY    58  38  46 E10G17    30.06S
VIROQUA        CLOUDY    52  42  68 NE7       30.05S
BOSCOBEL       CLOUDY    53  43  68 VRB5      30.04F
PRAIRIE DU CHI LGT RAIN  51  42  70 NE3       30.05R
PLATTEVILLE    CLOUDY    51  46  80 NE9       30.02S
$$

WIZ056-057-062-063-064-067-068-012200-
SOUTH CENTRAL WISCONSIN

CITY           SKY/WX    TMP DP  RH WIND       PRES   REMARKS
REEDSBURG      CLOUDY    55  39  55 E9        30.04R
BARABOO/DELLS  CLOUDY    55  37  50 NE12      30.04R
LONE ROCK      CLOUDY    54  44  69 N5        30.03F
MINERAL POINT  CLOUDY    54  45  71 NE7       30.02S
MADISON        PTSUNNY   56  40  55 NE16G23   30.02R
MIDDLETON      CLOUDY    57  42  57 NE15      30.02S
WATERTOWN      CLOUDY    55  42  62 NE8G18    30.03R
MONROE         CLOUDY    52  43  71 NE9       30.00F
JANESVILLE     CLOUDY    57  43  58 NE12      30.01R
$$

WIZ051-052-058>065-066-070>072-012200-
SOUTHEAST WISCONSIN

CITY           SKY/WX    TMP DP  RH WIND       PRES   REMARKS
MILWAUKEE      CLOUDY    45  39  79 NE14      30.05R
WAUKESHA       MOSUNNY   52  41  66 NE12G23   30.04R
MILWAUKEE/TIMM CLOUDY    52  37  58 NE14G22   30.04S
RACINE         LGT RAIN  44  39  82 N14       30.05R
BURLINGTON     CLOUDY    46  42  83 E9        30.04R
KENOSHA        CLOUDY    47  42  83 N12       30.03S
FOND DU LAC    MOSUNNY   58  40  51 NE17G31   30.04S
SHEBOYGAN      CLOUDY    51  39  63 NE18      30.05S
WEST BEND      CLOUDY    52  39  62 NE16G23   30.04R
JUNEAU         PTSUNNY   56  41  56 NE14      30.04R
$$

LSZ147-162-012200-
LAKE SUPERIOR

STATION/POSITION TIME  TEMP    WIND        PRES    WAVE
                       AIR SEA DIR/SP/G            HT/PER
                 (UTC) (F)     (DEG/KT/KT) (MB)    (FT/S)
W MID LAKE BUOY  2050   39 37   40/  6/  8 1023.3F   3/ 5
DEVILS ISLAND    2100   38      40/  7/  8 1023.6F
SAXON HARBOR     2000   40      20/  8/ 10 1022.4F
$$

LMZ867-665-643>646-012200-
LAKE MICHIGAN

STATION/POSITION TIME  TEMP    WIND        PRES    WAVE
                       AIR SEA DIR/SP/G            HT/PER
                 (UTC) (F)     (DEG/KT/KT) (MB)    (FT/S)
CHAMBERS ISLAND  2000   46      20/  8/ 11 1020.3S
N MID LAKE BUOY  2050   42 39   10/  6/  8 1019.7F   1
NORTHPORT PIER   2000   45      80/  5/  8 1020.0F
KEWAUNEE LAKESHO 2100   47      30/ 11/ 15 1018.1S
SHEBOYGAN LAKESH 2100   43      20/ 18/ 20 1018.5R
PORT WASHINGTON  2040   48      30/ 13/ 17 1018.3S
S MID LAKE BUOY  2050   42 40   20/ 10/ 10 1016.4R   2/ 5
KENOSHA   LAKESH 2100   44      10/ 15/ 18 1017.3R
$$

TC  - TEMPERATURE IN CELSIUS
VSB - VISIBILITY IN STATUTE MILES
WCI - WIND CHILL INDEX
HX  - HEAT INDEX





USA.gov is the U.S. government's official web portal to all federal, state and local government web resources and services.